Location: Strawberry
(45.6646°N, 111.9596°W)
Time: 22:40:47
(UTC+00:00)

Courier 1B Rocket - Pass Details

Date: 13 October 2022
Orbit: 920 x 1202 km, 28.3° (Epoch: 03 December)

Event Time Altitude Azimuth Distance (km) Brightness Sun altitude
Rises 23:45:47 0° 240° (WSW) 4,051 10.4 9.2°
Reaches altitude 10° 23:49:32 10° 224° (SW) 3,053 9.0 8.6°
Maximum altitude 23:54:36 19° 181° (S) 2,361 7.4 7.7°
Drops below altitude 10° 23:59:27 10° 139° (SE) 2,923 7.3 6.9°
Sets 00:02:57 0° 122° (ESE) 3,824 7.7 6.4°
